Find Starlink 4199

NORAD ID: 52857 Int'l Des: 2022-062 Owner: SPXS Country: US Constellation: starlink operational
LEOCIRCULAR

Live Position

Loading 3D Globe...

About Starlink 4199

Description loading...

Upcoming Passes

Passes for default location (London). Set your location on the main map for personalized predictions.

Altitude History

Loading altitude history...

Two-Line Element Set

1 52857U 22062AD 26104.31826632 -.00000238 00000-0 31058-5 0 9999
2 52857 53.2171 224.1787 0001241 88.2112 271.9022 15.08839271211303
Epoch: Apr 14, 2026 • Age: 27 hours

Current Status

Altitude 539.7 km
Velocity 7.59 km/s
Sub-Earth Point 11.18°N, 136.94°W
Launch Date Jun 17, 2022
Age 3.8 years
Type internet

Technical Details

Classification Payload
Mass 297.00 kg
Dry Mass 275.00 kg
Total Mass 297.00 kg
Length 0.20 m
Diameter 2.80 m
Span 9.00 m
Shape Box + pan
Manufacturer SPXS
Bus Type Starlink
Phase Status In Orbit
Owner/State SPXS/US

Most Searched